When you browse on this site, cookies collect data to enhance your experience and personalize the content and advertising you see.
Visit our Privacy Policy to learn more. By continuing to use the site, you agree to this use of cookies and data.
  • In Hungary
  • List of Countries
  • For 7 days
  • Water Temperature
  • Satellite Maps
  • Weather Map
  • News
  • Weather Widgets
  • user-avatar
    Login

    Hourly Weather Northallerton

    Today, 23 February, Saturday

    Time Temperature Precipitation Wind Pressure Humidity
    00:00 +7°C° 0 mm 4 mps 770 mmHg 85%
    01:00 +7°C° 0 mm 4 mps 770 mmHg 85%
    02:00 +6°C° 0 mm 4 mps 769 mmHg 84%
    03:00 +6°C° 0 mm 4 mps 769 mmHg 84%
    04:00 +6°C° 0 mm 5 mps 769 mmHg 82%
    05:00 +6°C° 0 mm 5 mps 769 mmHg 80%
    06:00 +5°C° 0 mm 5 mps 769 mmHg 78%
    07:00 +6°C° 0 mm 5 mps 769 mmHg 77%
    08:00 +7°C° 0 mm 5 mps 769 mmHg 76%
    09:00 +7°C° 0 mm 6 mps 769 mmHg 75%
    10:00 +9°C° 0 mm 6 mps 769 mmHg 70%
    11:00 +11°C° 0 mm 6 mps 768 mmHg 65%
    12:00 +14°C° 0 mm 7 mps 768 mmHg 60%
    13:00 +14°C° 0 mm 6 mps 768 mmHg 60%
    14:00 +15°C° 0 mm 6 mps 768 mmHg 59%
    15:00 +15°C° 0 mm 6 mps 768 mmHg 59%
    16:00 +14°C° 0 mm 5 mps 769 mmHg 65%
    17:00 +12°C° 0 mm 4 mps 769 mmHg 71%
    18:00 +11°C° 0 mm 3 mps 770 mmHg 77%
    19:00 +11°C° 0 mm 3 mps 770 mmHg 79%
    20:00 +10°C° 0 mm 2 mps 770 mmHg 81%
    21:00 +10°C° 0 mm 2 mps 771 mmHg 83%
    22:00 +11°C° 0 mm 1 mps 771 mmHg 85%
    23:00 +10°C° 0 mm 1 mps 771 mmHg 87%

    Tomorrow, 24 February, Sunday

    Time Temperature Precipitation Wind Pressure Humidity
    00:00 +9°C° 0 mm 0 mps 772 mmHg 89%
    01:00 +9°C° 0 mm 0 mps 772 mmHg 89%
    02:00 +9°C° 0 mm 1 mps 772 mmHg 90%
    03:00 +9°C° 0 mm 1 mps 772 mmHg 91%
    04:00 +9°C° 0 mm 1 mps 772 mmHg 91%
    05:00 +9°C° 0 mm 1 mps 772 mmHg 92%
    06:00 +7°C° 0 mm 2 mps 772 mmHg 93%
    07:00 +8°C° 0 mm 2 mps 772 mmHg 92%
    08:00 +10°C° 0 mm 1 mps 772 mmHg 91%
    09:00 +10°C° 0 mm 1 mps 772 mmHg 90%
    10:00 +12°C° 0 mm 2 mps 772 mmHg 85%
    11:00 +12°C° 0 mm 3 mps 772 mmHg 81%
    12:00 +13°C° 0 mm 4 mps 772 mmHg 77%
    13:00 +14°C° 0 mm 4 mps 772 mmHg 72%
    14:00 +14°C° 0 mm 4 mps 771 mmHg 67%
    15:00 +14°C° 0 mm 4 mps 771 mmHg 62%
    16:00 +13°C° 0 mm 3 mps 771 mmHg 65%
    17:00 +11°C° 0 mm 3 mps 771 mmHg 68%
    18:00 +10°C° 0 mm 3 mps 772 mmHg 71%
    19:00 +9°C° 0 mm 3 mps 772 mmHg 71%
    20:00 +8°C° 0 mm 3 mps 772 mmHg 72%
    21:00 +8°C° 0 mm 3 mps 772 mmHg 72%
    22:00 +7°C° 0 mm 3 mps 772 mmHg 73%
    23:00 +7°C° 0 mm 3 mps 772 mmHg 74%

    Day after tomorrow, 25 February, Monday

    Time Temperature Precipitation Wind Pressure Humidity
    00:00 +5°C° 0 mm 3 mps 772 mmHg 75%
    01:00 +6°C° 0 mm 2 mps 772 mmHg 75%
    02:00 +6°C° 0 mm 2 mps 772 mmHg 75%
    03:00 +6°C° 0 mm 2 mps 773 mmHg 75%
    04:00 +6°C° 0 mm 2 mps 772 mmHg 74%
    05:00 +6°C° 0 mm 2 mps 772 mmHg 72%
    06:00 +6°C° 0 mm 2 mps 772 mmHg 71%
    07:00 +7°C° 0 mm 2 mps 772 mmHg 69%
    08:00 +7°C° 0 mm 2 mps 773 mmHg 68%
    09:00 +8°C° 0 mm 2 mps 773 mmHg 66%
    10:00 +10°C° 0 mm 2 mps 773 mmHg 61%
    11:00 +12°C° 0 mm 2 mps 773 mmHg 56%
    12:00 +13°C° 0 mm 3 mps 773 mmHg 51%
    13:00 +14°C° 0 mm 3 mps 772 mmHg 50%
    14:00 +14°C° 0 mm 3 mps 772 mmHg 49%
    15:00 +14°C° 0 mm 3 mps 771 mmHg 48%
    16:00 +13°C° 0 mm 3 mps 771 mmHg 53%
    17:00 +11°C° 0 mm 3 mps 771 mmHg 57%
    18:00 +10°C° 0 mm 3 mps 771 mmHg 61%
    19:00 +9°C° 0 mm 3 mps 771 mmHg 64%
    20:00 +9°C° 0 mm 3 mps 771 mmHg 66%
    21:00 +8°C° 0 mm 3 mps 771 mmHg 69%
    22:00 +8°C° 0 mm 3 mps 771 mmHg 71%
    23:00 +7°C° 0 mm 3 mps 771 mmHg 73%

    26 February, Tuesday

    Time Temperature Precipitation Wind Pressure Humidity
    00:00 +7°C° 0 mm 3 mps 771 mmHg 74%
    01:00 +7°C° 0 mm 3 mps 771 mmHg 77%
    02:00 +7°C° 0 mm 2 mps 771 mmHg 80%
    03:00 +7°C° 0 mm 2 mps 771 mmHg 82%
    04:00 +6°C° 0 mm 2 mps 771 mmHg 82%
    05:00 +6°C° 0 mm 2 mps 770 mmHg 82%
    06:00 +6°C° 0 mm 2 mps 770 mmHg 83%
    07:00 +8°C° 0 mm 1 mps 771 mmHg 79%
    08:00 +9°C° 0 mm 1 mps 771 mmHg 75%
    09:00 +9°C° 0 mm 0 mps 771 mmHg 71%
    10:00 +11°C° 0 mm 1 mps 771 mmHg 67%
    11:00 +13°C° 0 mm 1 mps 771 mmHg 63%
    12:00 +14°C° 0 mm 2 mps 771 mmHg 59%
    13:00 +14°C° 0 mm 2 mps 771 mmHg 61%
    14:00 +15°C° 0 mm 2 mps 771 mmHg 63%
    15:00 +15°C° 0 mm 2 mps 771 mmHg 65%
    16:00 +13°C° 0 mm 2 mps 770 mmHg 73%
    17:00 +10°C° 0 mm 2 mps 770 mmHg 80%
    18:00 +9°C° 0 mm 2 mps 770 mmHg 88%
    19:00 +8°C° 0 mm 2 mps 770 mmHg 89%
    20:00 +8°C° 0 mm 1 mps 770 mmHg 90%
    21:00 +7°C° 0 mm 1 mps 770 mmHg 91%
    22:00 +7°C° 0 mm 1 mps 769 mmHg 90%
    23:00 +7°C° 0 mm 1 mps 769 mmHg 90%

    27 February, Wednesday

    Time Temperature Precipitation Wind Pressure Humidity
    00:00 +7°C° 0 mm 1 mps 769 mmHg 89%
    01:00 +6°C° 0 mm 1 mps 768 mmHg 89%
    02:00 +6°C° 0 mm 1 mps 768 mmHg 90%
    03:00 +5°C° 0 mm 2 mps 767 mmHg 90%
    04:00 +5°C° 0 mm 2 mps 767 mmHg 90%
    05:00 +5°C° 0 mm 2 mps 766 mmHg 90%
    06:00 +5°C° 0 mm 2 mps 766 mmHg 91%
    07:00 +6°C° 0 mm 2 mps 766 mmHg 88%
    08:00 +6°C° 0 mm 2 mps 765 mmHg 85%
    09:00 +7°C° 0 mm 2 mps 765 mmHg 82%
    10:00 +9°C° 0 mm 2 mps 765 mmHg 76%
    11:00 +12°C° 0 mm 2 mps 764 mmHg 69%
    12:00 +13°C° 0 mm 2 mps 764 mmHg 63%
    13:00 +14°C° 0 mm 2 mps 763 mmHg 61%
    14:00 +14°C° 0 mm 2 mps 763 mmHg 60%
    15:00 +15°C° 0 mm 2 mps 762 mmHg 58%
    16:00 +14°C° 0 mm 2 mps 762 mmHg 64%
    17:00 +12°C° 0 mm 2 mps 762 mmHg 71%
    18:00 +9°C° 0 mm 2 mps 762 mmHg 77%
    19:00 +9°C° 0 mm 2 mps 762 mmHg 79%
    20:00 +8°C° 0 mm 2 mps 762 mmHg 81%
    21:00 +7°C° 0 mm 2 mps 762 mmHg 83%
    22:00 +7°C° 0 mm 2 mps 762 mmHg 85%
    23:00 +7°C° 0 mm 2 mps 761 mmHg 86%

    28 February, Thursday

    Time Temperature Precipitation Wind Pressure Humidity
    00:00 +6°C° 0 mm 2 mps 761 mmHg 88%
    01:00 +6°C° 0 mm 2 mps 761 mmHg 89%
    02:00 +6°C° 0 mm 2 mps 761 mmHg 91%
    03:00 +6°C° 0 mm 2 mps 761 mmHg 92%
    04:00 +6°C° 0 mm 2 mps 761 mmHg 92%
    05:00 +6°C° 0 mm 2 mps 761 mmHg 92%
    06:00 +7°C° 0 mm 1 mps 761 mmHg 93%
    07:00 +7°C° 0 mm 2 mps 761 mmHg 91%
    08:00 +8°C° 0 mm 2 mps 761 mmHg 88%
    09:00 +9°C° 0 mm 2 mps 762 mmHg 86%
    10:00 +10°C° 0 mm 3 mps 762 mmHg 81%
    11:00 +12°C° 0 mm 4 mps 762 mmHg 76%
    12:00 +13°C° 0 mm 4 mps 762 mmHg 70%
    13:00 +13°C° 0 mm 4 mps 762 mmHg 70%
    14:00 +13°C° 0 mm 4 mps 762 mmHg 70%
    15:00 +13°C° 0 mm 4 mps 762 mmHg 69%
    16:00 +12°C° 0 mm 4 mps 762 mmHg 74%
    17:00 +11°C° 0 mm 3 mps 763 mmHg 79%
    18:00 +9°C° 0 mm 2 mps 763 mmHg 84%
    19:00 +9°C° 0 mm 2 mps 763 mmHg 87%
    20:00 +8°C° 0 mm 2 mps 764 mmHg 89%
    21:00 +7°C° 0 mm 2 mps 764 mmHg 92%
    22:00 +7°C° 0 mm 2 mps 764 mmHg 92%
    23:00 +6°C° 0 mm 2 mps 764 mmHg 91%
    Show more